Weather History for Albuquerque Double Eagle, NM

Change the Weather History Date:

Saturday, March 2, 2013

  Actual Average Record
Temperature  
Mean Temperature 43 °F -  
Max Temperature 60 °F - - ()
Min Temperature 26 °F - - ()
Degree Days  
Heating Degree Days 22    
Moisture  
Dew Point 14 °F    
Average Humidity 37    
Maximum Humidity 59    
Minimum Humidity 17    
Precipitation  
Precipitation 0.00 in - - ()
Sea Level Pressure  
Sea Level Pressure 30.34 in    
Wind  
Wind Speed 3 mph (West)    
Max Wind Speed 15 mph    
Max Gust Speed -    
Visibility 10 miles    
Events      
T = Trace of Precipitation, MM = Missing Value Source: NWS Daily Summary

Daily Weather History Graph

Daily Weather History Graph

Search for Another Location

Airport:

Trip Planner

Search our weather history database for the weather conditions in past years. The results will help you decide how hot, cold, wet, or windy it might be!

Date:

Astronomy

Mar. 02, 2013 Rise Set
Actual Time 6:34 AM MST 6:03 PM MST
Civil Twilight 6:09 AM MST 6:29 PM MST
Nautical Twilight 5:40 AM MST 6:58 PM MST
Astronomical Twilight 5:10 AM MST 7:28 PM MST
Moon 11:32 PM MST (3/2) 9:18 AM MST (3/2)
Length of Visible Light 12h 19m
Length of Day
11h 28m
Waning Gibbous, 73% of the Moon is Illuminated
Mar 2
Waning Gibbous
Mar 4
Last Quarter
Mar 11
New
Mar 19
First Quarter
Mar 27
Full

Hourly Weather History & Observations

Time (MST) Temp. Windchill Dew Point Humidity Pressure Visibility Wind Dir Wind Speed Gust Speed Precip Events Conditions
12:15 AM 35.6 °F - 15.8 °F 44% 30.39 in 10.0 mi Calm Calm - N/A   Clear
12:35 AM 39.2 °F 35.9 °F 17.6 °F 42% 30.39 in 10.0 mi NW 4.6 mph - N/A   Clear
12:55 AM 35.6 °F - 15.8 °F 44% 30.40 in 10.0 mi Calm Calm - N/A   Clear
1:15 AM 32.0 °F - 15.8 °F 51% 30.40 in 10.0 mi Calm Calm - N/A   Clear
1:35 AM 30.2 °F 25.4 °F 12.2 °F 47% 30.40 in 10.0 mi West 4.6 mph - N/A   Clear
1:55 AM 28.4 °F - 14.0 °F 55% 30.40 in 10.0 mi Calm Calm - N/A   Clear
2:15 AM 28.4 °F 23.3 °F 10.4 °F 47% 30.40 in 10.0 mi West 4.6 mph - N/A   Clear
2:55 AM 26.6 °F 16.2 °F 10.4 °F 51% 30.38 in 10.0 mi West 11.5 mph - N/A   Clear
3:15 AM 32.0 °F - 15.8 °F 51% 30.38 in 10.0 mi Calm Calm - N/A   Clear
3:35 AM 33.8 °F - 17.6 °F 52% 30.39 in 10.0 mi Calm Calm - N/A   Clear
3:55 AM 32.0 °F - 14.0 °F 48% 30.39 in 10.0 mi Calm Calm - N/A   Clear
4:15 AM 28.4 °F - 14.0 °F 55% 30.40 in 10.0 mi Calm Calm - N/A   Clear
5:50 AM 33.8 °F - 15.8 °F 48% 30.41 in 10.0 mi Calm Calm - N/A   Clear
6:50 AM 28.4 °F - 15.8 °F 59% 30.42 in 10.0 mi Calm Calm - N/A   Clear
7:50 AM 33.8 °F - 17.6 °F 52% 30.43 in 10.0 mi Calm Calm - N/A   Clear
8:50 AM 44.6 °F 38.1 °F 17.6 °F 34% 30.45 in 10.0 mi NNW 13.8 mph - N/A   Clear
9:50 AM 48.2 °F - 17.6 °F 30% 30.43 in 10.0 mi North 15.0 mph - N/A   Clear
10:50 AM 48.2 °F - 19.4 °F 32% 30.42 in 10.0 mi NNW 9.2 mph - N/A   Clear
11:50 AM 50.0 °F - 19.4 °F 30% 30.40 in 10.0 mi WNW 8.1 mph - N/A   Partly Cloudy
12:50 PM 53.6 °F - 19.4 °F 26% 30.36 in 10.0 mi Variable 5.8 mph - N/A   Partly Cloudy
1:50 PM 57.2 °F - 17.6 °F 21% 30.32 in 10.0 mi Variable 6.9 mph - N/A   Partly Cloudy
2:50 PM 59.0 °F - 17.6 °F 20% 30.30 in 10.0 mi Variable 5.8 mph - N/A   Partly Cloudy
3:50 PM 59.0 °F - 17.6 °F 20% 30.28 in 10.0 mi Variable 5.8 mph - N/A   Partly Cloudy
4:50 PM 60.8 °F - 15.8 °F 17% 30.27 in 10.0 mi Calm Calm - N/A   Partly Cloudy
5:50 PM 57.2 °F - 14.0 °F 18% 30.26 in 10.0 mi WSW 6.9 mph - N/A   Partly Cloudy
6:50 PM 48.2 °F - 12.2 °F 24% 30.26 in 10.0 mi NW 4.6 mph - N/A   Clear
7:50 PM 46.4 °F 42.9 °F 10.4 °F 23% 30.26 in 10.0 mi WSW 6.9 mph - N/A   Clear
8:50 PM 41.0 °F 36.4 °F 10.4 °F 29% 30.27 in 10.0 mi SW 6.9 mph - N/A   Clear
9:15 PM 44.6 °F 43.1 °F 14.0 °F 29% 30.27 in 10.0 mi South 3.5 mph - N/A   Clear
9:35 PM 42.8 °F - 12.2 °F 29% 30.27 in 10.0 mi Calm Calm - N/A   Clear
9:45 PM 42.8 °F - 14.0 °F 31% 30.27 in 10.0 mi Calm Calm - N/A   Clear
9:55 PM 42.8 °F - 14.0 °F 31% 30.26 in 10.0 mi Calm Calm - N/A   Clear
10:15 PM 39.2 °F - 10.4 °F 31% 30.26 in 10.0 mi Calm Calm - N/A   Clear
10:35 PM 39.2 °F - 12.2 °F 33% 30.26 in 10.0 mi Calm Calm - N/A   Clear
10:55 PM 35.6 °F 30.7 °F 8.6 °F 33% 30.25 in 10.0 mi West 5.8 mph - N/A   Clear
11:15 PM 33.8 °F 28.6 °F 8.6 °F 35% 30.25 in 10.0 mi WSW 5.8 mph - N/A   Clear
11:35 PM 35.6 °F - 8.6 °F 33% 30.24 in 10.0 mi Calm Calm - N/A   Clear
11:55 PM 39.2 °F 35.9 °F 12.2 °F 33% 30.23 in 10.0 mi WNW 4.6 mph - N/A   Clear